Regional Weather Roundup
Issued by NWS

Home | Current Version | Previous Version | Text Only | Print | Product List | Glossary On
Versions: 1 2 3 4 5 6 7 8 9 10 11 12 13 14 15 16 17 18 19 20 21 22 23 24 25 26 27 28 29 30 31 32 33 34 35 36 37 38 39 40 41 42 43 44 45 46 47 48 49 50
000
ASUS44 KFWD 011815
RWRTX
NORTH TEXAS HOURLY WEATHER ROUNDUP
NATIONAL WEATHER SERVICE FORT WORTH TX
100 PM CDT SAT AUG 01 2015

NOTE: "FAIR" INDICATES FEW OR NO CLOUDS BELOW 12,000 FEET WITH NO
SIGNIFICANT WEATHER AND/OR OBSTRUCTIONS TO VISIBILITY.

TXZ118-119-011900-
DALLAS/FORT WORTH METROPLEX

CITY           SKY/WX    TMP DP  RH WIND       PRES   REMARKS
DFW AIRPORT    PTSUNNY   92  59  33 E5        30.06F HX  91
6HR MIN TEMP:  78; 6HR MAX TEMP:  92;

DALLAS LOVE    MOSUNNY   92  62  36 SW7       30.06F HX  92
6HR MIN TEMP:  79; 6HR MAX TEMP:  92;

FTW MEACHAM    PTSUNNY   93  59  31 E8        30.06F HX  92
6HR MIN TEMP:  81; 6HR MAX TEMP:  93;

DAL-EXECUTIVE  SUNNY     92  59  33 NE5       30.06F HX  91
6HR MIN TEMP:  76; 6HR MAX TEMP:  93;

FTW-ALLIANCE   PTSUNNY   94  59  31 E6        30.06F HX  93
6HR MIN TEMP:  72; 6HR MAX TEMP:  94;

FTW-NAS-JRB    PTSUNNY   93  59  31 CALM      30.06F HX  92
6HR MIN TEMP:  79; 6HR MAX TEMP:  93;

FTW-SPINKS     MOSUNNY   93  59  31 E9        30.08F HX  92
ARLINGTON      SUNNY     94  58  29 SE9       30.06F HX  93
6HR MIN TEMP:  74; 6HR MAX TEMP:  94;

GRAND PRAIRIE  SUNNY     91  61  35 CALM      30.07F HX  91
ADDISON        MOSUNNY   91  59  33 E6        30.08F HX  90
MESQUITE       SUNNY     91  57  31 CALM      30.06F HX  90
LANCASTER      SUNNY     91  58  33 S6        30.06F
6HR MIN TEMP:  72; 6HR MAX TEMP:  91;

$$

TXZ091>094-102>105-117-120-121-131>134-011900-
NORTH CENTRAL TEXAS

CITY           SKY/WX    TMP DP  RH WIND       PRES   REMARKS
SHRMAN/DENISON MOSUNNY   93  58  30 E6        30.08F HX  92
6HR MIN TEMP:  74; 6HR MAX TEMP:  93;

GAINESVILLE    MOSUNNY   89  62  40 E7        30.09F
6HR MIN TEMP:  73; 6HR MAX TEMP:  90;

BOWIE          PTSUNNY   80  63  54 SW6       30.10F
6HR MIN TEMP:  74; 6HR MAX TEMP:  84;

DECATUR        MOSUNNY   89  57  33 SW6       30.09F
6HR MIN TEMP:  73; 6HR MAX TEMP:  90;

DENTON         MOSUNNY   91  61  36 SE7       30.06F HX  91
6HR MIN TEMP:  73; 6HR MAX TEMP:  92;

MCKINNEY       MOSUNNY   91  60  35 SE7       30.07F HX  90
6HR MIN TEMP:  72; 6HR MAX TEMP:  92;

GREENVILLE     SUNNY     93  52  24 E6        30.06F HX  90
ROCKWALL       SUNNY     92  59  33 E3        30.05F HX  91
6HR MIN TEMP:  75; 6HR MAX TEMP:  93;

TERRELL        MOSUNNY   92  60  34 SE6       30.06F HX  91
6HR MIN TEMP:  73; 6HR MAX TEMP:  92;

WAXAHACHIE     SUNNY     92  63  38 E5        30.07F HX  92
6HR MIN TEMP:  70; 6HR MAX TEMP:  92;

CLEBURNE         N/A     91  57  31 E3G13     30.08F HX  90
GRANBURY       SUNNY     92  60  33 E5        30.08F HX  91
6HR MIN TEMP:  75; 6HR MAX TEMP:  92;

$$

TXZ083>090-098>101-113>116-127>130-139>142-154-155-011900-
WESTERN NORTH TEXAS

CITY           SKY/WX    TMP DP  RH WIND       PRES   REMARKS
WICHITA FALLS  TSTM      78  69  73 SW12      30.09S
6HR MIN TEMP:  73; 6HR MAX TEMP:  86; 6HR PCP: TRACE;

WF-KICKAPOO    CLOUDY    83  66  55 SW9       30.11S
6HR MIN TEMP:  75; 6HR MAX TEMP:  84;

VERNON         CLOUDY    80  65  61 SW5       30.11F
6HR MIN TEMP:  74; 6HR MAX TEMP:  81; 6HR PCP:  0.01;

ABILENE        MOSUNNY   89  68  49 E8        30.11F HX  93
6HR MIN TEMP:  74; 6HR MAX TEMP:  89;

ABILENE-DYESS  MOSUNNY   89  70  53 E9        30.10F HX  94
6HR MIN TEMP:  73; 6HR MAX TEMP:  89;

BRECKENRIDGE   PTSUNNY   87  65  47 SE6       30.09F
6HR MIN TEMP:  74; 6HR MAX TEMP:  89;

GRAHAM         CLOUDY    78  70  75 CALM      30.10S
6HR MIN TEMP:  71; 6HR MAX TEMP:  78;

MINERAL WELLS  PTSUNNY   88  63  43 SE7       30.07F
6HR MIN TEMP:  74; 6HR MAX TEMP:  89;

STEPHENVILLE   SUNNY     88  60  38 E7        30.12F
6HR MIN TEMP:  74; 6HR MAX TEMP:  88;

COMANCHE       SUNNY     91  61  36 SE6       30.09F HX  90
6HR MIN TEMP:  71; 6HR MAX TEMP:  91;

BROWNWOOD      SUNNY     91  59  33 N6        30.08F HX  90
COLEMAN        SUNNY     90  66  45 SE3       30.09F HX  92
6HR MIN TEMP:  72; 6HR MAX TEMP:  90;

BRADY          SUNNY     91  63  38 N6        30.08F HX  92
$$

TXZ143>147-156>162-174-175-011900-
CENTRAL TEXAS

CITY           SKY/WX    TMP DP  RH WIND       PRES   REMARKS
WACO           SUNNY     93  60  33 E6        30.04F HX  93
6HR MIN TEMP:  70; 6HR MAX TEMP:  94;

WACO-TSTC      SUNNY     93  59  31 CALM      30.03F HX  92
WACO-MCGREGOR  SUNNY     93  61  33 E9        30.05F HX  93
6HR MIN TEMP:  72; 6HR MAX TEMP:  93;

HILLSBORO      SUNNY     92  58  31 NE9       30.05F HX  90
6HR MIN TEMP:  71; 6HR MAX TEMP:  92;

CORSICANA      SUNNY     94  61  33 E8        30.06F HX  94
6HR MIN TEMP:  75; 6HR MAX TEMP:  94;

MEXIA          SUNNY     91  63  38 E15G21    30.04F HX  92
6HR MIN TEMP:  71; 6HR MAX TEMP:  92;

HEARNE         SUNNY     93  65  39 NE8       30.03F HX  94
6HR MIN TEMP:  72; 6HR MAX TEMP:  93;

CAMERON        SUNNY     93  63  37 E8        30.03F HX  94
6HR MIN TEMP:  72; 6HR MAX TEMP:  94;

TEMPLE         SUNNY     93  61  33 E13G20    30.05F HX  93
6HR MIN TEMP:  70; 6HR MAX TEMP:  93;

KILLEEN        SUNNY     90  60  36 VRB5      30.05F
6HR MIN TEMP:  73; 6HR MAX TEMP:  90;

KILLEEN-SKYLRK SUNNY     90  61  37 E5        30.04F
6HR MIN TEMP:  72; 6HR MAX TEMP:  90;

FORT HOOD      SUNNY     91  59  34 VRB3      30.04F HX  90
6HR MIN TEMP:  75; 6HR MAX TEMP:  91;

GATESVILLE     SUNNY     91  59  33 CALM      30.08F HX  90
HAMILTON       SUNNY     92  57  30 NE10      30.09F HX  91
6HR MIN TEMP:  74; 6HR MAX TEMP:  92;

LAMPASAS       SUNNY     92  58  32 E9        30.06F HX  90
6HR MIN TEMP:  76; 6HR MAX TEMP:  92;

$$

TXZ095>097-106>112-122>126-135>138-148>153-164>167-011900-
EAST TEXAS

CITY           SKY/WX    TMP DP  RH WIND       PRES   REMARKS
PARIS          SUNNY     91  61  35 E10       30.06F HX  91
6HR MIN TEMP:  70; 6HR MAX TEMP:  91;

SULPHUR SPRNGS SUNNY     92  57  30 S3        30.08F HX  90
6HR MIN TEMP:  71; 6HR MAX TEMP:  92;

MOUNT PLEASANT SUNNY     92  57  30 N3        30.06F HX  90
6HR MIN TEMP:  68; 6HR MAX TEMP:  93;

GILMER         SUNNY     89  61  39 N3        30.05F
6HR MIN TEMP:  66; 6HR MAX TEMP:  89;

MINEOLA        SUNNY     91  55  29 SE5       30.07S
TYLER          SUNNY     93  60  33 NE12      30.05F HX  93
6HR MIN TEMP:  73; 6HR MAX TEMP:  94;

LONGVIEW       SUNNY     94  62  34 E9        30.03F HX  94
6HR MIN TEMP:  70; 6HR MAX TEMP:  94;

MARSHALL       SUNNY     95  62  33 SE7       30.05F HX  95
6HR MIN TEMP:  69; 6HR MAX TEMP:  95;

ATHENS         SUNNY     90  61  37 NE3       30.04S
PALESTINE      SUNNY     92  61  35 NE7       30.05S HX  92
JACKSONVILLE   SUNNY     92  58  32 NE3       30.07F HX  91
HENDERSON      SUNNY     92  58  31 NE7       30.05F HX  91
6HR MIN TEMP:  69; 6HR MAX TEMP:  92;

CENTER         FAIR      93  63  36 E7        30.02F HX  94
6HR MIN TEMP:  70; 6HR MAX TEMP:  93;

NACOGDOCHES    SUNNY     91  64  40 E6        30.02F HX  93
6HR MIN TEMP:  72; 6HR MAX TEMP:  91;

LUFKIN         SUNNY     91  65  41 E5        30.02F HX  93
6HR MIN TEMP:  72; 6HR MAX TEMP:  92;

$$

SUPPLEMENTAL OBSERVATIONS (CENTRAL)

CITY           SKY/WX    TMP DP  RH WIND       PRES   REMARKS
LAKE TEXOMA      N/A     90  57  33 SE5         N/A
CADDO GRASSLND   N/A     93  59  31 S7G15       N/A  HX  92
PAT MAYSE LAKE   N/A     90  59  35 SE6         N/A
GREENVILLE       N/A     93  57  29 SE6         N/A  HX  92
CEDAR HILL       N/A     97  61  30 S3          N/A  HX  97
ATHENS           N/A     91  59  33 SE7         N/A  HX  90
LAKE LIMESTONE   N/A     93  59  31 E6G17       N/A  HX  92


USA.gov is the U.S. government's official web portal to all federal, state and local government web resources and services.